Regional Weather Roundup
Issued by NWS Bismarck, ND

Home | Current Version | Previous Version | Text Only | Print | Product List | Glossary On
Versions: 1 2 3 4 5 6 7 8 9 10 11 12 13 14 15 16 17 18 19 20 21 22 23 24 25 26 27 28 29 30 31 32 33 34 35 36 37 38 39 40 41 42 43 44 45 46 47 48 49 50
000
ASUS43 KBIS 301910
RWRBIS

NWR BROADCAST TEXT
NATIONAL WEATHER SERVICE BISMARCK ND
200 PM CDT SUN AUG 30 2015

NOTE: "FAIR" INDICATES FEW OR NO CLOUDS BELOW 12,000 FEET WITH NO
SIGNIFICANT WEATHER AND/OR OBSTRUCTIONS TO VISIBILITY.


CITY           SKY/WX    TMP DP  RH WIND       PRES   REMARKS
WILLISTON      PTSUNNY   85  53  33 NW8       29.74R HAZE
MINOT          MOSUNNY   91  54  28 S10G21    29.61F
MINOT AFB      MOSUNNY   94  55  26 SW10G16   29.60S HX  92
BISMARCK       CLOUDY    91  59  33 S13       29.68F HX  90
DICKINSON      CLOUDY    88  47  24 W17G24    29.72
GARRISON         N/A     90  58  33 S12       29.65F
HETTINGER ARPT CLOUDY    94  46  19 W17G23    29.74R HX  90
JAMESTOWN      SUNNY     84  66  54 S17G24    29.73F
CROSBY         FAIR      81  52  36 NW18      29.69R HAZE
HARVEY         FAIR      91  59  33 S14G21    29.65F HX  90
HAZEN          FAIR      90  55  31 SW10G18   29.66S
OAKES            N/A     84  77  79 S13G18    29.78F HX  94
RUGBY          FAIR      91  59  33 S13G20    29.63F HX  90
STANLEY        FAIR      84  52  32 CALM      29.66F
$$

CITY           SKY/WX    TMP DP  RH WIND       PRES   REMARKS
GRAND FORKS    PTSUNNY   84  68  58 S17G24    29.71F
GRAND FORKS AF MOSUNNY   84  69  61 S18       29.71F
DEVILS LAKE    MOSUNNY   88  66  48 SE16      29.67F HX  90
FARGO          SUNNY     85  66  53 S16G23    29.77F
CAVALIER       FAIR      81  68  65 S10G20    29.68F
GRAFTON        FAIR      82  70  65 S16       29.71F
GWINNER        FAIR      84  66  54 S14G20    29.79F
LANGDON        FAIR      90  63  40 S17       29.69F HX  90
ROLLA            N/A     91  57  31 S16G22    29.67F HX  90
WALHALLA       FAIR      84  73  70 MISG      29.67F HX  91
$$

CITY           SKY/WX    TMP DP  RH WIND       PRES   REMARKS
ABERDEEN       SUNNY     83  68  60 S17       29.80F
MOBRIDGE       PTSUNNY   89  65  44 SE12      29.69F HX  91
BUFFALO          N/A     93  46  19 NW5       29.70F
RAPID CITY     SUNNY     94  60  32 VRB7      29.79F HX  94
GLASGOW        PTSUNNY   73  56  54 N12       29.77F
SIDNEY         CLOUDY    81  52  36 NW18      29.71F
WOLF POINT     LGT RAIN  76  52  43 NW16      29.79R
GLENDIVE       CLOUDY    81  50  34 NW32G40   29.75F
MILES CITY     CLOUDY    82  50  32 N31G39    29.80R
BAKER          PTSUNNY   91  48  22 N10G21    29.78S
$$

CITY           SKY/WX    TMP DP  RH WIND       PRES   REMARKS
BILLINGS       PTSUNNY   78  47  33 E12       29.88F
GREAT FALLS    PTSUNNY   77  43  29 SW13G26   29.81F HAZE
REGINA         PTSUNNY   68  54  60 NW8       29.70S
ESTEVAN        CLOUDY    81  55  41 N17       29.63S SMOKE
$$




USA.gov is the U.S. government's official web portal to all federal, state and local government web resources and services.